Regional Weather Roundup
Issued by NWS Sterling, VA

Home | Current Version | Previous Version | Text Only | Print | Product List | Glossary Off
Versions: 1 2 3 4 5 6 7 8 9 10 11 12 13 14 15 16 17 18 19 20 21 22 23 24 25 26 27 28 29 30 31 32 33 34 35 36 37 38 39 40 41 42 43 44 45 46 47 48 49 50

000
ASUS41 KLWX 270610
RWRLWX

REGIONAL WEATHER ROUNDUP
NATIONAL WEATHER SERVICE BALTIMORE MD/WASHINGTON DC
100 AM EST FRI FEB 27 2015

Note: "FAIR" indicates few or no clouds below 12,000 feet
with no significant weather and/or obstructions to visibility.
 TC=TEMPERATURE CELSIUS

 * =Non NWS site. Station does not report precipitation (e.g. rain,
    snow, etc.), thunder, or fog.

DCZ001-MDZ009-015-VAZ040>042-051-053>054-270700-
WASHINGTON METRO

CITY           SKY/WX    TMP DP  RH WIND       PRES   REMARKS
WASHINGTON NAT CLOUDY    33  22  63 CALM      30.19R
DULLES         CLOUDY    30  24  78 CALM      30.16R
QUANTICO       CLOUDY    32  25  75 CALM      30.20R
COLLEGE PARK*  CLOUDY    32  27  80 CALM      30.17R
LEESBURG*      CLOUDY    32  27  80 CALM      30.17R
MANASSAS*      CLOUDY    30  28  93 CALM      30.17R
GAITHERSBURG*  CLOUDY    28  19  69 CALM      30.18R

$$

MDZ006>007-011-014-270700-
BALTIMORE METRO

CITY           SKY/WX    TMP DP  RH WIND       PRES   REMARKS
BWI AIRPORT    CLOUDY    28  21  75 CALM      30.16R
MD SCIENCE CTR   N/A     30  21  69 MISG      30.17R
MARTIN STATE   MOCLDY    30  25  80 CALM      30.19R
ANNAPOLIS      CLOUDY    29  22  75 CALM      30.18R
FORT MEADE*    CLOUDY    28  23  80 CALM      30.19R

$$

MDZ012-015-019>023-270700-
MARYLAND EASTERN SHORE

CITY           SKY/WX    TMP DP  RH WIND       PRES   REMARKS
OCEAN CITY     PTCLDY    17  14  88 CALM      30.18R FOG
SALISBURY      FOG       18  14  84 CALM      30.18R VSB 1/4
BAY BRIDGE AP*   N/A     28  23  80 CALM      30.18R
CAMBRIDGE*     CLOUDY    27  23  86 CALM      30.17R
EASTON*        CLOUDY    28  25  89 CALM      30.21R

$$

MDZ017>025-270700-
SOUTHERN MARYLAND

CITY           SKY/WX    TMP DP  RH WIND       PRES   REMARKS
PATUXENT RIVER CLOUDY    23  21  92 CALM      30.18R
ST INIGOES     CLOUDY    22  18  85 CALM      30.17R
LEONARDTOWN*   CLOUDY    25  21  86 CALM      30.19R

$$

MDZ003>005-270700-
NORTH CENTRAL MARYLAND

CITY           SKY/WX    TMP DP  RH WIND       PRES   REMARKS
FREDERICK*     NOT AVBL
HAGERSTOWN APT CLOUDY    27  22  81 CALM      30.14R HAZE
WESTMINSTER*   CLOUDY    27  19  74 CALM      30.13R

$$

MDZ501>502-270700-
WESTERN MARYLAND

CITY           SKY/WX    TMP DP  RH WIND       PRES   REMARKS
OAKLAND*       CLOUDY    12 N/A N/A NW6       30.03R FOG
CUMBERLAND*    MOCLDY    28  14  54 CALM      30.21R

$$

VAZ025>031-270700-
SHENANDOAH VALLEY

CITY           SKY/WX    TMP DP  RH WIND       PRES   REMARKS
WINCHESTER*    MOCLDY    32  21  64 CALM      30.14R
FRONT ROYAL*   CLOUDY    28  25  86 CALM      30.13R
LURAY*         CLOUDY    30  28  93 CALM      30.12R
NEW MARKET*    CLOUDY    26  24  92 CALM      30.12R
STAUNTON*      MOCLDY    29  24  83 CALM      30.12R
WAYNESBORO*    MOCLDY    29  25  84 W3        30.10R

$$

WVZ021-048>050-054>055-270700-
EASTERN WEST VIRGINIA PANHANDLE

CITY           SKY/WX    TMP DP  RH WIND       PRES   REMARKS
MARTINSBURG    MOCLDY    29  22  75 CALM      30.15R
PETERSBURG*    NOT AVBL

$$

VAZ036>039-050-270700-
CENTRAL FOOTHILLS

CITY           SKY/WX    TMP DP  RH WIND       PRES   REMARKS
CHARLOTTESVILL CLOUDY    32  26  78 CALM      30.13R
CULPEPER*      MOCLDY    30  27  86 CALM      30.16R
ORANGE*        CLOUDY    32  30  93 CALM      30.16R
GORDONSVILLE*  CLOUDY    30  27  87 CALM      30.14R
WARRENTON*     CLOUDY    31  31 100 CALM      30.15R

$$

VAZ055>057-270700-
NORTH AND CENTRAL PIEDMONT

CITY           SKY/WX    TMP DP  RH WIND       PRES   REMARKS
FREDERICKSBRG* CLOUDY    31  28  90 CALM      30.18R
STAFFORD*      CLOUDY    29  28  94 CALM      30.22R

$$

NCZ024-NYZ072-PAZ021-071-VAZ022-071-270700-
OTHER REGIONAL OBSERVATIONS

CITY           SKY/WX    TMP DP  RH WIND       PRES   REMARKS
NEW YORK CITY  CLOUDY    21   6  52 VRB6      30.18R
PHILADELPHIA   MOCLDY    26  18  71 CALM      30.18R
PITTSBURGH     FLURRIES  10   5  80 NW12      30.23R WCI  -5
ROANOKE        CLOUDY    32  22  66 W3        30.14R
RICHMOND       CLOUDY    28  25  88 CALM      30.18R FOG
RALEIGH        MOCLDY    28  25  88 CALM      30.17S FOG

$$

ANZ530>537-270700-
MARINE OBSERVATIONS

STATION/POSITION TIME  TEMP    WIND        PRES
                       AIR SEA DIR/SP/G
                 (UTC) (F)     (DEG/KT/KT) (MB)
THOMAS PT LIGHT  0600   29 31  260/  3/  3 1023.2R
BALT KEY BRIDGE  0500   30     130/  1/  2 1021.2R
COVE POINT       0500   27     300/  1/  2 1021.0R
LEWISETTA        0500   25 32     CALM     1021.4R
SOLOMONS ISLAND  0500      32                N/A

$$



USA.gov is the U.S. government's official web portal to all federal, state and local government web resources and services.